Showing default

TSAT-1A, 59442

Orbit data source: Space-Track

TSAT-1A, 59442 is a payload satellite owned by TASL (IN) in LEO that was launched on Sun, 07 Apr 2024 UTC via an FALCON 9 launch vehicle from the Air Force Eastern Test Range (AFETR). Payload-class satellites include a variety of spacecraft equipped with specific instruments for various scientific and technological missions. These include communications satellites like Starlink; space stations such as the ISS; scientific satellites like the Hubble; Earth observation satellites from companies like Planet Labs, Umbra, and HawkEye 360; GPS; miniature CubeSats for education and research; and military/defense satellites.

Loading next visibility...
Identifier
59442, 2024-066A
Orbit
LEO
Last TLE update
5 hours ago
Origin
Manufacturer
URUGUS S.A.
Mission
Operational spacecraft
Bus & Motor
NEWSAT V, Unknown motor
Mass
~42 kg wet, ~38 kg dry
Launch date (UTC)
2024-04-07 (1 year ago)
Launch vehicle
FALCON 9
Launch site
Air Force Eastern Test Range (AFETR)
Object type
Payload
Rocket body
Debris
Shape & HBR
Unknown
Radar Cross Section
Medium (>0.1 m² and <1 m²)

Expand to show TLE details & history

TLE from 5 hours ago
0 TSAT-1A
1 59442U 24066A   25129.18847527  .00011141  00000-0  45192-3 0  9995
2 59442  45.6083 149.8134 0012482  12.8515 347.2693 15.24764883 59906
Epoch: 2025-05-09T04:31Z
Definitive object data (Epoch: 2025-05-09T04:31:24.263Z)
Latitude
0.00004°
Longitude
-145.28586°
Altitude
483.196 km
Speed
7.63 km/s
True Right ascension
09h 59m 15s
True Declination
0° 00' 00"
Sunlit
Object was in daylight at TLE epoch
Visualization TLE readout
Latitude
40.82428°
Longitude
-23.71122°
Altitude
495.911 km
Speed
7.622 km/s
Apparent Right ascension
20h 40m 25s
Apparent Declination
44° 40' 10"
Sunlit
Object is in daylight
Visualization observer readout
Local Sidereal Time
17:53:40
Azimuth
67.241° ENE
Elevation
59.141°
Doppler factor
1
Orbital elements
Apogee altitude
501.573 km
Perigee altitude
484.42 km
Semi-major axis
6,871.134 km
Eccentricity
0.0012482
Inclination
45.6083°
RAAN
149.8134°
Arg. of periapsis
12.8515°
True anomaly
347.23773°
Mean anomaly
347.2693°
Eccentric anomaly
347.25352°
Mean motion
3.81066 °/min
BSTAR
0.00045192
Orbital period
94.47 mins
Loading maneuver chart data...
Loading SW <> Apogee altitude chart data...
Loading historical data...
Loading historical data...
Loading historical data...
Loading historical data...
Loading historical data...
Loading historical data...
Loading historical data...

TSAT-1A Visibility forecast

Observer location: undefined°, undefined°

Span
Click to sort rows by Start time (UTC) header in descending order
Start Az.
Max El. time (UTC)
Max El. Az.
Max El.
End time (UTC)
End Az.
4 mins2025-05-09 11:21:17.895Z248.305° W2025-05-09 11:22:17.895Z223.873° SW23.238°2025-05-09 11:25:17.895Z164.539° S
5 mins2025-05-10 04:19:17.895Z209.796° SW2025-05-10 04:21:17.895Z149.044° SSE35.414°2025-05-10 04:24:17.895Z77.205° E
5 mins2025-05-10 05:58:17.895Z281.263° WNW2025-05-10 06:00:17.895Z346.299° N36.092°2025-05-10 06:03:17.895Z56.703° ENE
5 mins2025-05-10 07:37:17.895Z305.937° NW2025-05-10 07:39:17.895Z349.57° N28.549°2025-05-10 07:42:17.895Z63.298° ENE
6 mins2025-05-10 09:16:17.895Z300.688° NW2025-05-10 09:19:17.895Z57.022° ENE41.941°2025-05-10 09:22:17.895Z104.82° ESE
|